Locatie 51° 56′ 37″.87 NB – 05° 58’47”.70 OL

We konden geen weer-waarchuwingen ophalen. Ga rechtstreeks naar de Meteoalarm site : www.meteoalarm.eu en controleer daar .


Webcam1-NNO Meer informatie Webcam1-NNO


Webcam2-ZZO Meer informatie Webcam2-ZZO


Bezoek ook deze websites:

Template documentatie
en downloads

Weer Sluispark Leuven

Allesoversterrenkunde.nl

Luchtkwaliteit Beekenoord



Select another period ( hide this area )

Eenheden Periode Custom range Directly to
Metrisch Engels Beide
Dagelijkse Wekelijkse Maandelijkse Jaarlijkse
use both date-selectors for a custom range
previous Dag
With this date

WeatherUnderground graphs for this period ( click here )


Dagelijkse Samenvatting Woensdag 07 december 2022
Tijd Temp. ( °C ) Dew pt. ( °C ) Wind ( km/h ) van Windvlaag ( km/h ) Luchtdruk ( hPa ) Humid.( % ) Rainrate ( cm ) Zonneschijn ( W/m2 )
Hoog6,4 4,7 0,0 ( 0/0 ) 3,2 1016,9 98 1,50 169
Gemiddeld3,4 2,7 0,0 Kalm #210/210 0,0 1015,5 96 1,20 54 #94/210
Laag1,1 0,8 -   0,0 1012,9 88 -  
Dagelijkse Tabular details for Woensdag 07 december 2022
Tijd Temp. ( °C ) Dew pt. ( °C ) Wind ( km/h ) van Windvlaag ( km/h ) Luchtdruk ( hPa ) Humid.( % ) Rainrate ( cm ) Zonneschijn ( W/m2 )
00:04 3,4 3,0   Kalm   1016,6 97 - -
00:09 3,4 3,0   Kalm   1016,6 97 - -
00:14 3,6 3,2   Kalm   1016,6 97 - -
00:19 3,7 3,4   Kalm   1016,6 98 - -
00:24 3,7 3,3   Kalm   1016,6 97 - -
00:29 3,7 3,3   Kalm   1016,6 97 - -
00:34 3,7 3,3   Kalm   1016,6 97 - -
00:39 3,7 3,4   Kalm   1016,6 98 - -
00:44 3,8 3,5   Kalm   1016,6 98 - -
00:49 3,8 3,4   Kalm   1016,9 97 - -
00:54 3,8 3,5   Kalm   1016,6 98 - -
00:59 3,9 3,6   Kalm   1016,6 98 - -
01:05 3,9 3,6   Kalm   1016,6 98 - -
01:10 3,8 3,5   Kalm   1016,6 98 - -
01:15 3,7 3,3   Kalm   1016,6 97 - -
01:20 3,6 3,2   Kalm   1016,6 97 - -
01:25 3,5 3,1   Kalm   1016,6 97 - -
01:30 3,4 3,0   Kalm   1016,6 97 - -
01:35 3,3 2,9   Kalm   1016,6 97 - -
01:40 3,3 2,9   Kalm   1016,6 97 - -
01:45 3,2 2,8   Kalm   1016,3 97 - -
01:50 3,1 2,7   Kalm   1016,3 97 - -
01:55 2,9 2,5   Kalm   1016,3 97 - -
02:00 2,9 2,5   Kalm   1016,3 97 - -
02:05 2,8 2,4   Kalm   1016,3 97 - -
02:10 2,7 2,3   Kalm   1016,3 97 - -
02:15 2,7 2,3   Kalm   1016,3 97 - -
02:20 2,6 2,2   Kalm   1016,3 97 - -
02:25 2,6 2,2   Kalm   1016,3 97 - -
02:30 2,5 2,1   Kalm   1016,3 97 0,20 -
02:35 2,4 2,0   Kalm   1016,3 97 0,20 -
02:40 2,4 2,0   Kalm   1016,3 97 0,20 -
02:45 2,3 1,9   Kalm   1016,3 97 0,20 -
02:50 2,3 1,9   Kalm   1016,3 97 0,20 -
02:55 2,3 1,9   Kalm   1016,3 97 0,20 -
03:00 2,3 1,9   Kalm   1016,3 97 0,20 -
03:05 2,3 1,9   Kalm   1016,3 97 0,20 -
03:10 2,2 1,8   Kalm   1016,3 97 0,20 -
03:15 2,2 1,8   Kalm   1016,3 97 0,20 -
03:20 2,1 1,7   Kalm   1016,3 97 0,20 -
03:25 2,1 1,7   Kalm   1016,3 97 0,20 -
03:30 1,9 1,5   Kalm   1016,3 97 - -
03:35 1,9 1,5   Kalm   1016,3 97 - -
03:40 1,9 1,5   Kalm   1016,3 97 - -
03:45 1,9 1,5   Kalm   1016,3 97 - -
03:50 1,8 1,4   Kalm   1016,3 97 - -
03:55 1,8 1,4   Kalm   1016,3 97 - -
04:00 1,8 1,4   Kalm   1016,3 97 - -
04:05 1,8 1,4   Kalm   1016,3 97 - -
04:10 1,8 1,4   Kalm   1016,3 97 - -
04:15 1,8 1,4   Kalm   1016,3 97 - -
04:20 1,9 1,6   Kalm   1016,3 98 - -
04:25 2,0 1,7   Kalm   1016,3 98 - -
04:30 2,1 1,8   Kalm   1016,3 98 - -
04:35 2,2 1,9   Kalm   1016,3 98 - -
04:40 2,3 2,0   Kalm   1016,3 98 - -
04:45 2,3 2,0   Kalm   1016,3 98 - -
04:50 2,3 2,0   Kalm   1015,9 98 - -
04:55 2,3 2,0   Kalm   1015,9 98 - -
05:00 2,4 2,1   Kalm   1015,9 98 - -
05:05 2,4 2,1   Kalm   1016,3 98 - -
05:10 2,4 2,1   Kalm   1015,9 98 - -
05:15 2,4 2,1   Kalm   1015,9 98 - -
05:20 2,4 2,1   Kalm   1015,9 98 - -
05:25 2,4 2,0   Kalm   1015,9 97 - -
05:30 2,3 1,9   Kalm   1015,9 97 - -
05:35 2,3 1,9   Kalm   1015,9 97 - -
05:40 2,2 1,9   Kalm   1015,9 98 - -
05:45 2,3 2,0   Kalm   1015,9 98 - -
05:50 2,3 2,0   Kalm   1015,9 98 - -
05:55 2,3 2,0   Kalm   1015,9 98 - -
06:00 2,5 2,2   Kalm   1015,9 98 - -
06:06 2,6 2,3   Kalm   1015,9 98 - -
06:11 2,5 2,2   Kalm   1015,9 98 - -
06:16 2,4 2,1   Kalm   1015,9 98 - -
06:21 2,3 1,9   Kalm   1015,9 97 - -
06:26 2,1 1,7   Kalm   1015,9 97 - -
06:31 1,9 1,5   Kalm   1015,9 97 - -
06:36 1,9 1,5   Kalm   1015,9 97 - -
06:41 1,8 1,4   Kalm   1015,9 97 - -
06:46 1,8 1,5   Kalm   1015,9 98 - -
06:51 1,8 1,4   Kalm   1015,9 97 - -
06:56 1,8 1,4   Kalm   1015,9 97 - -
07:01 1,8 1,4   Kalm   1015,9 97 - -
07:06 1,7 1,3   Kalm   1015,9 97 - -
07:11 1,6 1,3   Kalm   1015,6 98 - -
07:16 1,7 1,4   Kalm   1015,9 98 - -
07:21 1,6 1,3   Kalm   1015,9 98 - -
07:26 1,6 1,2   Kalm   1015,9 97 - -
07:31 1,4 1,0   Kalm   1015,9 97 - -
07:36 1,4 1,0   Kalm   1015,9 97 - -
07:41 1,4 1,0   Kalm   1015,9 97 - -
07:46 1,3 0,9   Kalm   1015,9 97 - -
07:51 1,3 1,0   Kalm   1015,9 98 - -
07:56 1,2 0,9   Kalm   1015,9 98 - -
08:01 1,2 0,9   Kalm   1015,9 98 - -
08:06 1,2 0,8   Kalm   1015,9 97 - -
08:11 1,3 1,0   Kalm   1015,9 98 - -
08:16 1,4 1,1   Kalm   1015,9 98 - -
08:21 1,4 1,1   Kalm   1015,9 98 - -
08:26 1,4 1,1   Kalm   1015,9 98 - -
08:31 1,3 1,0   Kalm   1015,9 98 - 5
08:36 1,3 1,0   Kalm   1015,9 98 - 5
08:41 1,2 0,9   Kalm   1015,9 98 - 7
08:46 1,2 0,9   Kalm   1015,9 98 - 9
08:51 1,2 0,8   Kalm   1016,3 97 - 11
08:56 1,2 0,8   Kalm   1016,3 97 - 12
09:01 1,2 0,9   Kalm   1015,9 98 - 16
09:06 1,1 0,8   Kalm   1015,9 98 - 19
09:11 1,2 0,9   Kalm   1015,9 98 - 33
09:16 1,3 1,0   Kalm   1016,3 98 - 33
09:21 1,6 1,3   Kalm   1016,3 98 - 56
09:26 1,9 1,6   Kalm   1016,3 98 - 70
09:31 2,0 1,7   Kalm   1016,3 98 - 54
09:36 2,2 1,9   Kalm   1016,3 98 - 35
09:41 2,3 2,0   Kalm   1016,3 98 - 40
09:46 2,4 2,1   Kalm   1016,3 98 - 33
09:51 2,6 2,3   Kalm   1016,3 98 - 44
09:56 2,8 2,5   Kalm   1016,3 98 - 35
10:01 2,8 2,5   Kalm   1016,3 98 - 23
10:06 2,8 2,5   Kalm   1016,3 98 - 30
10:11 2,7 2,4   Kalm   1016,3 98 - 47
10:16 2,7 2,4   Kalm   1016,3 98 - 76
10:21 2,8 2,5   Kalm   1016,3 98 - 53
10:26 2,9 2,6   Kalm   1016,3 98 - 56
10:31 3,1 2,8   Kalm   1016,3 98 - 83
10:36 3,3 3,0   Kalm   1016,3 98 - 74
10:41 3,4 3,1   Kalm   1016,3 98 - 102
10:46 3,5 3,2   Kalm   1016,3 98 - 88
10:51 3,6 3,3   Kalm   1016,3 98 - 74
10:56 3,7 3,4   Kalm   1016,3 98 - 76
11:01 3,8 3,5   Kalm   1016,3 98 - 65
11:06 3,8 3,5   Kalm   1016,3 98 - 46
11:11 3,9 3,6   Kalm   1016,3 98 - 40
11:16 3,9 3,6   Kalm   1015,9 98 - 40
11:21 4,1 3,8   Kalm   1015,9 98 - 51
11:26 4,2 3,9   Kalm   1015,9 98 - 58
11:31 4,2 3,9   Kalm   1015,9 98 - 56
11:36 4,2 3,9   Kalm   1015,9 98 - 60
11:41 4,2 3,9   Kalm   1015,6 98 - 58
11:46 4,3 3,9   Kalm   1015,6 97 - 84
11:51 4,4 4,0   Kalm   1015,6 97 - 79
11:56 4,5 4,1   Kalm   1015,6 97 - 137
12:01 4,6 4,2   Kalm   1015,6 97 - 137
12:06 4,8 4,4   Kalm   1015,6 97 - 111
12:12 4,8 4,2   Kalm   1015,2 96 - 84
12:17 4,9 4,3   Kalm   1015,2 96 - 60
12:22 4,9 4,2   Kalm 3,2 1015,2 95 - 60
12:27 5,0 4,3   Kalm   1015,2 95 - 60
12:32 5,0 4,1   Kalm   1015,2 94 - 37
12:37 5,1 4,2   Kalm   1015,2 94 - 40
12:42 5,1 4,2   Kalm   1015,2 94 - 40
12:47 5,2 4,3   Kalm   1015,2 94 - 39
12:52 5,2 4,3   Kalm   1015,2 94 - 42
12:57 5,4 4,5   Kalm   1015,2 94 - 51
13:02 5,5 4,5   Kalm   1015,2 93 - 62
13:07 5,6 4,4   Kalm   1015,2 92 - 47
13:12 5,6 4,4   Kalm   1014,9 92 - 44
13:17 5,5 4,3   Kalm   1014,9 92 - 53
13:22 5,5 4,3   Kalm   1014,9 92 - 40
13:27 5,4 4,0   Kalm   1014,9 91 - 39
13:32 5,3 4,0   Kalm   1014,9 91 - 49
13:37 5,4 4,0   Kalm   1014,9 91 - 51
13:42 5,5 4,1   Kalm   1014,9 91 - 58
13:47 5,6 4,2   Kalm   1014,6 91 - 84
13:52 5,9 4,5   Kalm   1014,6 91 - 165
13:57 6,2 4,7   Kalm   1014,6 90 - 169
14:02 6,4 4,7   Kalm   1014,6 89 - 65
14:07 6,3 4,6   Kalm   1014,6 89 - 51
14:12 6,3 4,6   Kalm   1014,6 89 - 53
14:17 6,3 4,5   Kalm   1014,2 88 - 69
14:22 6,3 4,5   Kalm   1014,2 88 - 54
14:27 6,2 4,4   Kalm   1014,2 88 - 76
14:32 6,2 4,5   Kalm   1014,2 89 - 74
14:37 6,2 4,5   Kalm   1014,2 89 - 76
14:42 6,2 4,5   Kalm   1014,2 89 - 63
14:47 6,2 4,5   Kalm   1013,9 89 - 58
14:52 6,2 4,5   Kalm   1013,9 89 - 79
14:57 6,2 4,4   Kalm   1013,9 88 - 86
15:02 6,2 4,4   Kalm   1013,9 88 - 102
15:07 6,3 4,5   Kalm   1013,9 88 - 125
15:12 6,4 4,6   Kalm   1013,9 88 - 109
15:17 6,4 4,6   Kalm   1013,9 88 - 40
15:22 6,3 4,5   Kalm   1013,5 88 - 19
15:27 6,2 4,5   Kalm   1013,9 89 0,20 11
15:32 5,7 4,0   Kalm   1013,9 89 0,50 11
15:37 5,1 3,4   Kalm   1013,5 89 0,50 33
15:42 4,8 3,1   Kalm   1013,5 89 0,50 30
15:47 4,6 3,3   Kalm   1013,5 91 0,80 28
15:52 4,4 3,1   Kalm   1013,9 91 1,00 25
15:57 4,3 3,1   Kalm   1013,5 92 1,00 19
16:02 4,2 3,0   Kalm   1013,5 92 1,00 16
16:07 4,2 3,2   Kalm   1013,5 93 1,30 9
16:12 4,2 3,2   Kalm   1013,5 93 1,30 5
16:17 4,2 3,3   Kalm   1013,5 94 1,30 5
16:22 4,2 3,3   Kalm   1013,5 94 1,50 -
16:27 4,2 3,5   Kalm   1013,5 95 1,30 -
16:32 4,2 3,5   Kalm   1013,5 95 1,00 -
16:37 4,2 3,5   Kalm   1013,5 95 0,80 -
16:42 4,2 3,5   Kalm   1013,5 95 1,00 -
16:47 4,1 3,4   Kalm   1013,5 95 0,80 -
16:52 4,2 3,5   Kalm   1013,2 95 0,50 -
16:57 4,1 3,4   Kalm   1013,2 95 0,50 -
17:02 4,1 3,4   Kalm   1013,2 95 0,50 -
17:07 4,1 3,4   Kalm   1013,2 95 0,50 -
17:12 4,1 3,4   Kalm   1013,2 95 0,50 -
17:17 4,1 3,5   Kalm   1013,2 96 0,50 -
17:22 4,1 3,5   Kalm   1013,2 96 0,50 -
17:27 4,1 3,5   Kalm   1013,2 96 0,50 -
17:32 4,1 3,5   Kalm   1012,9 96 0,50 -
Dagelijkse Samenvatting Woensdag 07 december 2022
Tijd Temp. ( °C ) Dew pt. ( °C ) Wind ( km/h ) van Windvlaag ( km/h ) Luchtdruk ( hPa ) Humid.( % ) Rainrate ( cm ) Zonneschijn ( W/m2 )
Hoog6,4 4,7 0,0 ( 0/0 ) 3,2 1016,9 98 1,50 169
Gemiddeld3,4 2,7 0,0 Kalm #210/210 0,0 1015,5 96 1,20 54 #94/210
Laag1,1 0,8 -   0,0 1012,9 88 -  
Dagelijkse Tabular details for Woensdag 07 december 2022
Tijd Temp. ( °C ) Dew pt. ( °C ) Wind ( km/h ) van Windvlaag ( km/h ) Luchtdruk ( hPa ) Humid.( % ) Rainrate ( cm ) Zonneschijn ( W/m2 )
00:04 3,4 3,0   Kalm   1016,6 97 - -
00:09 3,4 3,0   Kalm   1016,6 97 - -
00:14 3,6 3,2   Kalm   1016,6 97 - -
00:19 3,7 3,4   Kalm   1016,6 98 - -
00:24 3,7 3,3   Kalm   1016,6 97 - -
00:29 3,7 3,3   Kalm   1016,6 97 - -
00:34 3,7 3,3   Kalm   1016,6 97 - -
00:39 3,7 3,4   Kalm   1016,6 98 - -
00:44 3,8 3,5   Kalm   1016,6 98 - -
00:49 3,8 3,4   Kalm   1016,9 97 - -
00:54 3,8 3,5   Kalm   1016,6 98 - -
00:59 3,9 3,6   Kalm   1016,6 98 - -
01:05 3,9 3,6   Kalm   1016,6 98 - -
01:10 3,8 3,5   Kalm   1016,6 98 - -
01:15 3,7 3,3   Kalm   1016,6 97 - -
01:20 3,6 3,2   Kalm   1016,6 97 - -
01:25 3,5 3,1   Kalm   1016,6 97 - -
01:30 3,4 3,0   Kalm   1016,6 97 - -
01:35 3,3 2,9   Kalm   1016,6 97 - -
01:40 3,3 2,9   Kalm   1016,6 97 - -
01:45 3,2 2,8   Kalm   1016,3 97 - -
01:50 3,1 2,7   Kalm   1016,3 97 - -
01:55 2,9 2,5   Kalm   1016,3 97 - -
02:00 2,9 2,5   Kalm   1016,3 97 - -
02:05 2,8 2,4   Kalm   1016,3 97 - -
02:10 2,7 2,3   Kalm   1016,3 97 - -
02:15 2,7 2,3   Kalm   1016,3 97 - -
02:20 2,6 2,2   Kalm   1016,3 97 - -
02:25 2,6 2,2   Kalm   1016,3 97 - -
02:30 2,5 2,1   Kalm   1016,3 97 0,20 -
02:35 2,4 2,0   Kalm   1016,3 97 0,20 -
02:40 2,4 2,0   Kalm   1016,3 97 0,20 -
02:45 2,3 1,9   Kalm   1016,3 97 0,20 -
02:50 2,3 1,9   Kalm   1016,3 97 0,20 -
02:55 2,3 1,9   Kalm   1016,3 97 0,20 -
03:00 2,3 1,9   Kalm   1016,3 97 0,20 -
03:05 2,3 1,9   Kalm   1016,3 97 0,20 -
03:10 2,2 1,8   Kalm   1016,3 97 0,20 -
03:15 2,2 1,8   Kalm   1016,3 97 0,20 -
03:20 2,1 1,7   Kalm   1016,3 97 0,20 -
03:25 2,1 1,7   Kalm   1016,3 97 0,20 -
03:30 1,9 1,5   Kalm   1016,3 97 - -
03:35 1,9 1,5   Kalm   1016,3 97 - -
03:40 1,9 1,5   Kalm   1016,3 97 - -
03:45 1,9 1,5   Kalm   1016,3 97 - -
03:50 1,8 1,4   Kalm   1016,3 97 - -
03:55 1,8 1,4   Kalm   1016,3 97 - -
04:00 1,8 1,4   Kalm   1016,3 97 - -
04:05 1,8 1,4   Kalm   1016,3 97 - -
04:10 1,8 1,4   Kalm   1016,3 97 - -
04:15 1,8 1,4   Kalm   1016,3 97 - -
04:20 1,9 1,6   Kalm   1016,3 98 - -
04:25 2,0 1,7   Kalm   1016,3 98 - -
04:30 2,1 1,8   Kalm   1016,3 98 - -
04:35 2,2 1,9   Kalm   1016,3 98 - -
04:40 2,3 2,0   Kalm   1016,3 98 - -
04:45 2,3 2,0   Kalm   1016,3 98 - -
04:50 2,3 2,0   Kalm   1015,9 98 - -
04:55 2,3 2,0   Kalm   1015,9 98 - -
05:00 2,4 2,1   Kalm   1015,9 98 - -
05:05 2,4 2,1   Kalm   1016,3 98 - -
05:10 2,4 2,1   Kalm   1015,9 98 - -
05:15 2,4 2,1   Kalm   1015,9 98 - -
05:20 2,4 2,1   Kalm   1015,9 98 - -
05:25 2,4 2,0   Kalm   1015,9 97 - -
05:30 2,3 1,9   Kalm   1015,9 97 - -
05:35 2,3 1,9   Kalm   1015,9 97 - -
05:40 2,2 1,9   Kalm   1015,9 98 - -
05:45 2,3 2,0   Kalm   1015,9 98 - -
05:50 2,3 2,0   Kalm   1015,9 98 - -
05:55 2,3 2,0   Kalm   1015,9 98 - -
06:00 2,5 2,2   Kalm   1015,9 98 - -
06:06 2,6 2,3   Kalm   1015,9 98 - -
06:11 2,5 2,2   Kalm   1015,9 98 - -
06:16 2,4 2,1   Kalm   1015,9 98 - -
06:21 2,3 1,9   Kalm   1015,9 97 - -
06:26 2,1 1,7   Kalm   1015,9 97 - -
06:31 1,9 1,5   Kalm   1015,9 97 - -
06:36 1,9 1,5   Kalm   1015,9 97 - -
06:41 1,8 1,4   Kalm   1015,9 97 - -
06:46 1,8 1,5   Kalm   1015,9 98 - -
06:51 1,8 1,4   Kalm   1015,9 97 - -
06:56 1,8 1,4   Kalm   1015,9 97 - -
07:01 1,8 1,4   Kalm   1015,9 97 - -
07:06 1,7 1,3   Kalm   1015,9 97 - -
07:11 1,6 1,3   Kalm   1015,6 98 - -
07:16 1,7 1,4   Kalm   1015,9 98 - -
07:21 1,6 1,3   Kalm   1015,9 98 - -
07:26 1,6 1,2   Kalm   1015,9 97 - -
07:31 1,4 1,0   Kalm   1015,9 97 - -
07:36 1,4 1,0   Kalm   1015,9 97 - -
07:41 1,4 1,0   Kalm   1015,9 97 - -
07:46 1,3 0,9   Kalm   1015,9 97 - -
07:51 1,3 1,0   Kalm   1015,9 98 - -
07:56 1,2 0,9   Kalm   1015,9 98 - -
08:01 1,2 0,9   Kalm   1015,9 98 - -
08:06 1,2 0,8   Kalm   1015,9 97 - -
08:11 1,3 1,0   Kalm   1015,9 98 - -
08:16 1,4 1,1   Kalm   1015,9 98 - -
08:21 1,4 1,1   Kalm   1015,9 98 - -
08:26 1,4 1,1   Kalm   1015,9 98 - -
08:31 1,3 1,0   Kalm   1015,9 98 - 5
08:36 1,3 1,0   Kalm   1015,9 98 - 5
08:41 1,2 0,9   Kalm   1015,9 98 - 7
08:46 1,2 0,9   Kalm   1015,9 98 - 9
08:51 1,2 0,8   Kalm   1016,3 97 - 11
08:56 1,2 0,8   Kalm   1016,3 97 - 12
09:01 1,2 0,9   Kalm   1015,9 98 - 16
09:06 1,1 0,8   Kalm   1015,9 98 - 19
09:11 1,2 0,9   Kalm   1015,9 98 - 33
09:16 1,3 1,0   Kalm   1016,3 98 - 33
09:21 1,6 1,3   Kalm   1016,3 98 - 56
09:26 1,9 1,6   Kalm   1016,3 98 - 70
09:31 2,0 1,7   Kalm   1016,3 98 - 54
09:36 2,2 1,9   Kalm   1016,3 98 - 35
09:41 2,3 2,0   Kalm   1016,3 98 - 40
09:46 2,4 2,1   Kalm   1016,3 98 - 33
09:51 2,6 2,3   Kalm   1016,3 98 - 44
09:56 2,8 2,5   Kalm   1016,3 98 - 35
10:01 2,8 2,5   Kalm   1016,3 98 - 23
10:06 2,8 2,5   Kalm   1016,3 98 - 30
10:11 2,7 2,4   Kalm   1016,3 98 - 47
10:16 2,7 2,4   Kalm   1016,3 98 - 76
10:21 2,8 2,5   Kalm   1016,3 98 - 53
10:26 2,9 2,6   Kalm   1016,3 98 - 56
10:31 3,1 2,8   Kalm   1016,3 98 - 83
10:36 3,3 3,0   Kalm   1016,3 98 - 74
10:41 3,4 3,1   Kalm   1016,3 98 - 102
10:46 3,5 3,2   Kalm   1016,3 98 - 88
10:51 3,6 3,3   Kalm   1016,3 98 - 74
10:56 3,7 3,4   Kalm   1016,3 98 - 76
11:01 3,8 3,5   Kalm   1016,3 98 - 65
11:06 3,8 3,5   Kalm   1016,3 98 - 46
11:11 3,9 3,6   Kalm   1016,3 98 - 40
11:16 3,9 3,6   Kalm   1015,9 98 - 40
11:21 4,1 3,8   Kalm   1015,9 98 - 51
11:26 4,2 3,9   Kalm   1015,9 98 - 58
11:31 4,2 3,9   Kalm   1015,9 98 - 56
11:36 4,2 3,9   Kalm   1015,9 98 - 60
11:41 4,2 3,9   Kalm   1015,6 98 - 58
11:46 4,3 3,9   Kalm   1015,6 97 - 84
11:51 4,4 4,0   Kalm   1015,6 97 - 79
11:56 4,5 4,1   Kalm   1015,6 97 - 137
12:01 4,6 4,2   Kalm   1015,6 97 - 137
12:06 4,8 4,4   Kalm   1015,6 97 - 111
12:12 4,8 4,2   Kalm   1015,2 96 - 84
12:17 4,9 4,3   Kalm   1015,2 96 - 60
12:22 4,9 4,2   Kalm 3,2 1015,2 95 - 60
12:27 5,0 4,3   Kalm   1015,2 95 - 60
12:32 5,0 4,1   Kalm   1015,2 94 - 37
12:37 5,1 4,2   Kalm   1015,2 94 - 40
12:42 5,1 4,2   Kalm   1015,2 94 - 40
12:47 5,2 4,3   Kalm   1015,2 94 - 39
12:52 5,2 4,3   Kalm   1015,2 94 - 42
12:57 5,4 4,5   Kalm   1015,2 94 - 51
13:02 5,5 4,5   Kalm   1015,2 93 - 62
13:07 5,6 4,4   Kalm   1015,2 92 - 47
13:12 5,6 4,4   Kalm   1014,9 92 - 44
13:17 5,5 4,3   Kalm   1014,9 92 - 53
13:22 5,5 4,3   Kalm   1014,9 92 - 40
13:27 5,4 4,0   Kalm   1014,9 91 - 39
13:32 5,3 4,0   Kalm   1014,9 91 - 49
13:37 5,4 4,0   Kalm   1014,9 91 - 51
13:42 5,5 4,1   Kalm   1014,9 91 - 58
13:47 5,6 4,2   Kalm   1014,6 91 - 84
13:52 5,9 4,5   Kalm   1014,6 91 - 165
13:57 6,2 4,7   Kalm   1014,6 90 - 169
14:02 6,4 4,7   Kalm   1014,6 89 - 65
14:07 6,3 4,6   Kalm   1014,6 89 - 51
14:12 6,3 4,6   Kalm   1014,6 89 - 53
14:17 6,3 4,5   Kalm   1014,2 88 - 69
14:22 6,3 4,5   Kalm   1014,2 88 - 54
14:27 6,2 4,4   Kalm   1014,2 88 - 76
14:32 6,2 4,5   Kalm   1014,2 89 - 74
14:37 6,2 4,5   Kalm   1014,2 89 - 76
14:42 6,2 4,5   Kalm   1014,2 89 - 63
14:47 6,2 4,5   Kalm   1013,9 89 - 58
14:52 6,2 4,5   Kalm   1013,9 89 - 79
14:57 6,2 4,4   Kalm   1013,9 88 - 86
15:02 6,2 4,4   Kalm   1013,9 88 - 102
15:07 6,3 4,5   Kalm   1013,9 88 - 125
15:12 6,4 4,6   Kalm   1013,9 88 - 109
15:17 6,4 4,6   Kalm   1013,9 88 - 40
15:22 6,3 4,5   Kalm   1013,5 88 - 19
15:27 6,2 4,5   Kalm   1013,9 89 0,20 11
15:32 5,7 4,0   Kalm   1013,9 89 0,50 11
15:37 5,1 3,4   Kalm   1013,5 89 0,50 33
15:42 4,8 3,1   Kalm   1013,5 89 0,50 30
15:47 4,6 3,3   Kalm   1013,5 91 0,80 28
15:52 4,4 3,1   Kalm   1013,9 91 1,00 25
15:57 4,3 3,1   Kalm   1013,5 92 1,00 19
16:02 4,2 3,0   Kalm   1013,5 92 1,00 16
16:07 4,2 3,2   Kalm   1013,5 93 1,30 9
16:12 4,2 3,2   Kalm   1013,5 93 1,30 5
16:17 4,2 3,3   Kalm   1013,5 94 1,30 5
16:22 4,2 3,3   Kalm   1013,5 94 1,50 -
16:27 4,2 3,5   Kalm   1013,5 95 1,30 -
16:32 4,2 3,5   Kalm   1013,5 95 1,00 -
16:37 4,2 3,5   Kalm   1013,5 95 0,80 -
16:42 4,2 3,5   Kalm   1013,5 95 1,00 -
16:47 4,1 3,4   Kalm   1013,5 95 0,80 -
16:52 4,2 3,5   Kalm   1013,2 95 0,50 -
16:57 4,1 3,4   Kalm   1013,2 95 0,50 -
17:02 4,1 3,4   Kalm   1013,2 95 0,50 -
17:07 4,1 3,4   Kalm   1013,2 95 0,50 -
17:12 4,1 3,4   Kalm   1013,2 95 0,50 -
17:17 4,1 3,5   Kalm   1013,2 96 0,50 -
17:22 4,1 3,5   Kalm   1013,2 96 0,50 -
17:27 4,1 3,5   Kalm   1013,2 96 0,50 -
17:32 4,1 3,5   Kalm   1012,9 96 0,50 -

Download your copy of this data-set  here

Our weather-data as stored at Weather Underground. Script ontwikkeld door Jim McMurry. Aangepast voor de template door Leuven-Template.eu

U vindt ons ook hier:

Het Weer Aktueel

UK Metoffice

WeatherCloud

Weather Underground-IWESTE54

BNLWN

AWEKAS

Citizen Weather Observer Program (CWOP)

HAMweather, WeatherForYou, PWS Weather

weerspecialist

Apparatuur in gebruik:

Weerstation
Davis VP2

Weercomputer
Meteobridge Nano SD

Webleverancier
Strato

Davis VP2

Meteobridge Nano SD

Strato